Tracking 19562 objects as of 24-Mar-2019
HD Live streaming from Space Station
objects crossing your sky now

SAUDISAT 1B

Track SAUDISAT 1B now!
10-day predictions
SAUDISAT 1B is classified as:


NORAD ID: 26549
Int'l Code: 2000-057E
Perigee: 598.1 km
Apogee: 652.4 km
Inclination: 64.6 °
Period: 97.1 minutes
Semi major axis: 6996 km
RCS: 0.096 m2 (small)
Launch date: September 26, 2000
Source: Saudi Arabia (SAUD)
Launch site: TYURATAM MISSILE AND SPACE COMPLEX (TTMTR)

Uplink (MHz):
Downlink (MHz): 436.075
Beacon (MHz): 436.075
Mode: 9600bps FSK
Call sign: SASAT2-11 -12
Status: Inactive

aabbcc
Your satellite tracking list
Your tracking list is empty




NASA's NSSDC Master Catalog

Two Line Element Set (TLE):
1 26549U 00057E   19082.92448178 -.00000030 +00000-0 +14598-4 0  9996
2 26549 064.5506 285.4297 0038797 327.0271 032.8416 14.83552666999071
Source of the keplerian elements: AFSPC